EW7999 Weather Reports


time (UTC)temp
C
wind
direction
speed
KPH
gust
KPH
rain 1hr
cm
rain 24hr
cm
rain mn
cm
humidity
%
barometer
mb
20260507144532 13 250 1.6 6.4 0.00 0.00 0.00 66 1017.9
20260507143025 12 287 1.6 6.4 0.00 0.00 0.00 68 1018.1
20260507141523 12 268 1.6 4.8 0.00 0.00 0.00 73 1018.1
20260507140018 11 273 0.0 3.2 0.00 0.00 0.00 75 1018.4
20260507134518 10 299 0.0 8.0 0.00 0.00 0.00 78 1018.5
20260507133014 9 295 0.0 1.6 0.00 0.00 0.00 82 1018.5
20260507131518 8 294 0.0 1.6 0.00 0.00 0.00 83 1018.6
20260507130011 8 326 0.0 0.0 0.00 0.00 0.00 83 1018.5
20260507124516 8 324 0.0 0.0 0.00 0.00 0.00 83 1018.4
20260507123010 7 325 0.0 0.0 0.00 0.00 0.00 83 1018.3
20260507121511 7 326 0.0 0.0 0.00 0.00 0.00 83 1018.4
20260507120025 7 325 0.0 0.0 0.00 0.00 0.00 83 1018.3
20260507114509 7 325 0.0 0.0 0.00 0.00 0.00 84 1017.9
20260507113031 7 325 0.0 0.0 0.00 0.00 0.00 84 1017.9
20260507111507 7 325 0.0 0.0 0.00 0.00 0.00 84 1017.9
20260507110107 7 326 0.0 0.0 0.00 0.00 0.00 83 1017.9
20260507104503 7 325 0.0 0.0 0.00 0.00 0.00 83 1017.9
20260507103001 7 325 0.0 0.0 0.00 0.00 0.00 83 1018.0
20260507101604 8 326 0.0 0.0 0.00 0.00 0.00 83 1018.3
20260507101501 8 325 0.0 0.0 0.00 0.00 0.00 83 1018.3
20260507100105 7 326 0.0 0.0 0.00 0.00 0.00 83 1018.3
20260507094600 7 325 0.0 0.0 0.00 0.00 0.00 82 1018.4
20260507093057 7 326 0.0 0.0 0.00 0.00 0.00 81 1018.3
20260507091556 8 324 0.0 0.0 0.00 0.00 0.00 80 1018.3
20260507090055 8 324 0.0 0.0 0.00 0.00 0.00 78 1018.3
20260507084549 9 324 0.0 0.0 0.00 0.00 0.00 77 1018.3
20260507083045 10 324 0.0 0.0 0.00 0.00 0.00 76 1018.4
20260507081548 10 324 0.0 0.0 0.00 0.00 0.00 75 1018.5
20260507080043 10 324 0.0 0.0 0.00 0.00 0.00 76 1018.6
20260507074543 9 324 0.0 0.0 0.00 0.00 0.00 77 1018.7
20260507073047 9 324 0.0 0.0 0.00 0.00 0.00 77 1018.9
20260507071539 10 325 0.0 0.0 0.00 0.00 0.00 75 1019.0
20260507070041 10 324 0.0 0.0 0.00 0.00 0.00 75 1019.0
20260507064543 10 325 0.0 0.0 0.00 0.03 0.00 74 1019.1
20260507063045 10 324 0.0 0.0 0.00 0.03 0.00 71 1019.1
20260507061537 10 324 0.0 0.0 0.00 0.03 0.00 72 1019.1
20260507060032 10 324 0.0 0.0 0.00 0.03 0.00 73 1019.2
20260507054532 10 324 0.0 0.0 0.00 0.03 0.00 73 1019.3
20260507053035 10 324 0.0 0.0 0.00 0.03 0.00 72 1019.3
20260507051529 10 324 0.0 0.0 0.00 0.03 0.00 71 1019.2
20260507050024 10 324 0.0 0.0 0.00 0.03 0.00 67 1019.1
20260507044524 10 325 0.0 0.0 0.00 0.03 0.03 66 1019.1
20260507043023 11 324 0.0 0.0 0.00 0.03 0.03 66 1019.0
20260507041522 10 324 0.0 0.0 0.00 0.03 0.03 67 1018.9
20260507040022 11 324 0.0 0.0 0.00 0.03 0.03 65 1019.0
20260507034532 11 324 0.0 0.0 0.00 0.03 0.03 63 1019.1
20260507033021 12 326 0.0 0.0 0.00 0.03 0.03 60 1018.9
20260507031520 12 325 0.0 0.0 0.00 0.03 0.03 61 1018.9
20260507030022 12 325 0.0 0.0 0.00 0.03 0.03 59 1018.8
20260507024519 12 325 0.0 0.0 0.00 0.08 0.03 58 1018.7
20260507023018 12 324 0.0 0.0 0.00 0.08 0.03 58 1018.6
20260507021517 12 326 0.0 0.0 0.00 0.08 0.03 58 1018.6
20260507020017 13 324 0.0 0.0 0.00 0.08 0.03 57 1018.3
20260507014520 13 325 0.0 0.0 0.00 0.08 0.03 55 1017.9
20260507013016 13 326 0.0 0.0 0.00 0.08 0.03 54 1017.8
20260507011516 13 326 0.0 0.0 0.00 0.08 0.03 53 1017.7
20260507010027 14 325 0.0 1.6 0.00 0.08 0.03 51 1017.7
20260507004514 14 326 0.0 3.2 0.00 0.08 0.03 50 1017.7
20260507003014 14 324 0.0 3.2 0.00 0.08 0.03 49 1017.6
20260507001512 14 325 1.6 3.2 0.00 0.08 0.03 48 1017.7
20260507000012 14 325 1.6 4.8 0.00 0.08 0.03 47 1017.6
20260506234522 15 344 0.0 3.2 0.00 0.08 0.03 48 1017.4
20260506233011 15 339 0.0 3.2 0.00 0.08 0.03 46 1017.3
20260506231510 15 51 3.2 4.8 0.00 0.08 0.03 45 1017.3
20260506230009 15 61 3.2 6.4 0.00 0.08 0.03 44 1017.2
20260506224522 15 313 1.6 6.4 0.00 0.08 0.03 44 1017.2
20260506223007 15 322 1.6 4.8 0.00 0.08 0.03 45 1016.9
20260506221506 15 12 1.6 8.0 0.00 0.08 0.03 44 1017.0
20260506220017 16 350 3.2 8.0 0.00 0.08 0.03 43 1016.9
20260506214506 16 349 1.6 6.4 0.00 0.08 0.03 43 1017.2
20260506213004 16 34 3.2 6.4 0.00 0.08 0.03 43 1017.3
20260506211508 16 340 1.6 4.8 0.00 0.08 0.03 41 1017.3
20260506210005 16 30 0.0 6.4 0.00 0.08 0.03 42 1017.5
20260506204501 16 339 0.0 6.4 0.00 0.08 0.03 42 1017.7
20260506203103 16 83 1.6 8.0 0.00 0.08 0.03 41 1017.9
20260506201559 16 93 1.6 8.0 0.00 0.08 0.03 43 1018.1
20260506194600 16 34 3.2 8.0 0.00 0.08 0.03 40 1018.6
20260506193100 15 76 3.2 8.0 0.00 0.08 0.03 42 1018.6
20260506191553 15 346 3.2 8.0 0.00 0.08 0.03 43 1018.6
20260506190051 15 357 1.6 9.7 0.00 0.08 0.03 45 1018.6
20260506184548 15 41 3.2 6.4 0.00 0.08 0.03 46 1018.7
20260506183046 14 340 3.2 9.7 0.00 0.08 0.03 48 1018.9
20260506181558 13 85 1.6 8.0 0.00 0.08 0.03 50 1019.2
20260506180042 13 342 1.6 6.4 0.00 0.08 0.03 52 1019.4
20260506174541 13 52 3.2 11.3 0.00 0.08 0.03 50 1019.4
20260506173049 13 299 3.2 6.4 0.00 0.08 0.03 51 1019.7
20260506171536 13 354 1.6 8.0 0.00 0.08 0.03 57 1019.6
20260506170035 13 24 3.2 8.0 0.00 0.08 0.03 57 1019.6
20260506164530 12 14 3.2 8.0 0.00 0.08 0.03 60 1019.6
20260506163028 12 352 3.2 8.0 0.00 0.08 0.03 63 1019.2
20260506161524 12 3 1.6 8.0 0.00 0.08 0.03 66 1019.5
20260506160034 11 360 1.6 6.4 0.00 0.08 0.03 70 1019.5
20260506154523 11 344 3.2 6.4 0.00 0.08 0.03 69 1019.4
20260506153020 11 341 1.6 6.4 0.00 0.08 0.03 69 1019.4
20260506151518 10 328 3.2 6.4 0.00 0.08 0.03 71 1019.3
20260506150014 10 329 1.6 4.8 0.00 0.08 0.03 73 1019.6